Mitchell, SD

11:13 PM CST on December 09, 2019 (GMT -0600)
Mitchell Municipal

Weather History for KMHE - August, 2019

Change the Weather History Date:

Friday, August 23, 2019

  Actual Average Record
Temperature  
Mean Temperature 72 °F 71 °F  
Max Temperature 83 °F 83 °F 105 °F (1936)
Min Temperature 61 °F 60 °F 41 °F (1927)
Degree Days  
Heating Degree Days 0 0  
Month to date heating degree days 0 0  
Since 1 June heating degree days 16 40  
Since 1 July heating degree days 0 5  
Cooling Degree Days 7 6  
Month to date cooling degree days 194 183  
Year to date cooling degree days 774 701  
Since 1 June cooling degree days 755 661  
Growing Degree Days 22 (Base 50)    
Moisture  
Dew Point 59 °F    
Average Humidity 65    
Maximum Humidity 78    
Minimum Humidity 51    
Precipitation  
Precipitation 0.00 in 0.07 in 3.41 in (1957)
Month to date precipitation 2.13 1.82  
Year to date precipitation 23.05 15.79  
Snow  
Snow 0.00 in - 0.00 in ()
Month to date snowfall 0.0  
Since 1 June snowfall 0.0  
Since 1 July snowfall 0.0  
Snow Depth 0.00 in    
Sea Level Pressure  
Sea Level Pressure 30.05 in    
Wind  
Wind Speed 14 mph (SE)    
Max Wind Speed 21 mph    
Max Gust Speed 30 mph    
Visibility 10 miles    
Events      
T = Trace of Precipitation, MM = Missing Value Source: NWS Daily Summary

Daily Weather History Graph

Daily Weather History Graph

Search for Another Location

Airport or City:

Astronomy

Aug. 23, 2019 Rise Set
Actual Time 6:45 AM CDT 8:23 PM CDT
Civil Twilight 6:14 AM CDT 8:53 PM CDT
Nautical Twilight 5:38 AM CDT 9:30 PM CDT
Astronomical Twilight 4:58 AM CDT 10:09 PM CDT
Moon 12:02 AM CDT (8/23) 2:38 PM CDT (8/23)
Length of Visible Light 14h 38m
Length of Day
13h 38m
Waning Gibbous, 49% of the Moon is Illuminated
Aug 23
Waning Gibbous
Aug 30
New
Sep 5
First Quarter
Sep 13
Full
Sep 21
Last Quarter

Hourly Weather History & Observations

Time (CDT) Temp. Heat Index Dew Point Humidity Pressure Visibility Wind Dir Wind Speed Gust Speed Precip Events Conditions
12:53 AM 66.9 °F - 57.0 °F 70% 30.03 in 10.0 mi SE 15.0 mph 25.3 mph N/A   Partly Cloudy
1:53 AM 66.0 °F - 55.9 °F 70% 30.04 in 10.0 mi SE 11.5 mph 19.6 mph N/A   Scattered Clouds
2:53 AM 64.0 °F - 55.9 °F 75% 30.04 in 10.0 mi SE 9.2 mph - N/A   Mostly Cloudy
3:53 AM 64.9 °F - 55.0 °F 70% 30.04 in 10.0 mi SE 11.5 mph - N/A   Overcast
4:53 AM 64.0 °F - 54.0 °F 70% 30.04 in 10.0 mi SE 17.3 mph 27.6 mph N/A   Overcast
5:53 AM 62.1 °F - 53.1 °F 72% 30.04 in 10.0 mi SE 15.0 mph - N/A   Clear
6:53 AM 61.0 °F - 53.1 °F 75% 30.06 in 10.0 mi SE 16.1 mph 25.3 mph N/A   Scattered Clouds
7:53 AM 62.1 °F - 54.0 °F 75% 30.09 in 10.0 mi SE 11.5 mph - N/A   Mostly Cloudy
8:53 AM 63.0 °F - 54.0 °F 72% 30.08 in 10.0 mi SE 15.0 mph - N/A   Overcast
9:53 AM 66.0 °F - 55.9 °F 70% 30.07 in 10.0 mi ESE 16.1 mph 24.2 mph N/A   Overcast
10:53 AM 69.1 °F - 57.0 °F 65% 30.09 in 10.0 mi SE 13.8 mph 21.9 mph N/A   Overcast
11:53 AM 75.0 °F - 60.1 °F 60% 30.08 in 10.0 mi SE 12.7 mph 21.9 mph N/A   Mostly Cloudy
12:53 PM 77.0 °F - 61.0 °F 58% 30.06 in 10.0 mi SE 12.7 mph 24.2 mph N/A   Scattered Clouds
1:53 PM 82.0 °F 83.4 °F 64.0 °F 54% 30.05 in 10.0 mi SE 17.3 mph 24.2 mph N/A   Partly Cloudy
2:53 PM 81.0 °F 82.5 °F 64.0 °F 56% 30.04 in 10.0 mi SSE 18.4 mph 29.9 mph N/A   Partly Cloudy
3:53 PM 79.0 °F - 63.0 °F 58% 30.04 in 10.0 mi SE 13.8 mph 23.0 mph N/A   Overcast
4:53 PM 82.9 °F 84.0 °F 63.0 °F 51% 30.04 in 10.0 mi SE 17.3 mph 24.2 mph N/A   Mostly Cloudy
5:53 PM 82.0 °F 83.1 °F 63.0 °F 52% 30.03 in 10.0 mi SE 17.3 mph 24.2 mph N/A   Clear
6:53 PM 80.1 °F 81.5 °F 63.0 °F 56% 30.03 in 10.0 mi SSE 15.0 mph - N/A   Clear
7:53 PM 75.9 °F - 62.1 °F 62% 30.03 in 10.0 mi SE 12.7 mph - N/A   Clear
8:53 PM 73.0 °F - 61.0 °F 66% 30.05 in 10.0 mi SE 12.7 mph - N/A   Clear
9:53 PM 71.1 °F - 60.1 °F 68% 30.05 in 10.0 mi SE 13.8 mph - N/A   Clear
10:53 PM 69.1 °F - 61.0 °F 75% 30.07 in 10.0 mi SE 11.5 mph - N/A   Clear
11:53 PM 68.0 °F - 61.0 °F 78% 30.07 in 10.0 mi SE 11.5 mph - N/A   Clear